Flag for Cabo Verde Weather past 2 weeks in Praia, Cabo Verde

Now
72 °F

Sunny.


Feels Like: 75 °F
Forecast: 71 / 83 °F
Wind: 15 mph from Northeast

Location: Sal

Current Time: Mar 30, 2015 at 9:11:02 AM

Latest Report: Mar 30, 2015 at 8:00 AM


Visibility: 10 mi

Pressure: 30.01 "Hg

Humidity: 69%

Dew point: 61 °F

Location of PraiaLocation

Historic Weather in Praia — Graph

°F

Praia temperature yesterday

Maximum temperature yesterday: 79 °F (at 12:00 PM)
Minimum temperature yesterday: 66 °F (at 6:00 AM)
Average temperature yesterday: 73 °F

Past Weeks' High & Low Weather Summary

 TemperatureHumidityPressure
High79 °F (Mar 29, 12:00 PM)94% (Mar 29, 6:00 AM)30.12 "Hg (Mar 29, 6:00 AM)
Low63 °F (Mar 16, 3:00 AM)28% (Mar 24, 8:00 AM)29.89 "Hg (Mar 20, 3:00 PM)
Average69 °F66%30.01 "Hg
* Reported Mar 15 8:00 AM — Mar 30 8:00 AM, Praia, Weather by CustomWeather, © 2015

Note: Actual official high and low records may vary slightly from our data, if they occured in-between our weather recording intervals... More about our weather records

Advertising

Praia weather history for previous 24 hours

 ConditionsComfort  
Time TempWeatherWind HumidityBarometerVisibility
8:00 AM
Mon, Mar 30
72 °FSunny.15 mph69%30.01 "Hg10 mi
7:00 AM68 °FSunny.10 mph83%30.01 "Hg10 mi
6:00 AM68 °FPassing clouds.13 mph83%29.98 "Hg6 mi
5:00 AM68 °FPassing clouds.14 mph83%29.98 "Hg6 mi
3:00 AM66 °FPassing clouds.8 mph83%29.98 "Hg6 mi
2:00 AM68 °FPassing clouds.10 mph83%29.98 "Hg6 mi
1:00 AM68 °FPassing clouds.12 mph83%29.98 "Hg6 mi
12:00 AM68 °FPassing clouds.13 mph83%30.01 "Hg6 mi
11:00 PM
Sun, Mar 29
68 °FPassing clouds.12 mph83%30.04 "Hg6 mi
10:00 PM68 °FPassing clouds.14 mph83%30.04 "Hg6 mi
9:00 PM68 °FPassing clouds.16 mph83%30.01 "Hg6 mi
8:00 PM70 °FPassing clouds.15 mph78%30.01 "HgN/A
7:00 PM72 °FPassing clouds.16 mph73%29.98 "HgN/A
6:00 PM73 °FPassing clouds.16 mph65%29.98 "HgN/A
5:00 PM77 °FPassing clouds.15 mph61%29.98 "HgN/A
4:00 PM77 °FScattered clouds.17 mph61%29.98 "HgN/A
3:00 PM77 °FPassing clouds.20 mph61%29.98 "HgN/A
2:00 PM79 °FScattered clouds.21 mph58%30.01 "HgN/A
1:00 PM79 °FPassing clouds.28 mph54%30.04 "HgN/A
12:00 PM79 °FScattered clouds.25 mph54%30.04 "HgN/A
11:00 AM77 °FSunny.22 mph57%30.07 "Hg10 mi
Weather by CustomWeather, © 2015

See weather overviewHow to use our weather pages